Regional Weather Roundup
Issued by NWS

Home | Current Version | Previous Version | Graphics & Text | Print | Product List | Glossary On
Versions: 1 2 3 4 5 6 7 8 9 10 11 12 13 14 15 16 17 18 19 20 21 22 23 24 25 26 27 28 29 30 31 32 33 34 35 36 37 38 39 40 41 42 43 44 45 46 47 48 49 50
000
ASUS43 KMPX 211210
RWRMN
WEATHER ROUNDUP FOR MINNESOTA
NATIONAL WEATHER SERVICE TWIN CITIES/CHANHASSEN MN
700 AM CDT SUN SEP 21 2014


NOTE: "FAIR" INDICATES FEW OR NO CLOUDS BELOW 12,000 FEET WITH NO
SIGNIFICANT WEATHER AND/OR OBSTRUCTIONS TO VISIBILITY. N/A MEANS
CURRENT SKY AND/OR WEATHER CONDITIONS ARE NOT AVAILABLE.

MNZ060>063-068>070-211300-
   Twin Cities Metro

CITY           SKY/WX    TMP DP  RH WIND       PRES   REMARKS
TWIN CITIES    MOCLDY    53  47  79 NW14      30.00R
6HR MIN TEMP:  53; 6HR MAX TEMP:  57;

ST PAUL        CLOUDY    52  49  89 NW14      30.00R
CRYSTAL        CLOUDY    54  46  74 NW14      30.00R
BLAINE         CLOUDY    54  52  94 NW14G20   30.00R
LAKEVILLE      CLOUDY    52  46  82 NW14      29.99R
EDEN PRAIRIE   MOCLDY    53  47  79 NW17G29   30.00R
6HR MIN TEMP:  53; 6HR MAX TEMP:  58;

SOUTH ST PAUL  CLOUDY    53  49  85 NW13      29.99R
LAKE ELMO      CLOUDY    52  50  93 NW9G17    29.99R
$$
MNZ001>005-007-008-013>017-022>024-027-028-211300-
   Northwest Minnesota

CITY           SKY/WX    TMP DP  RH WIND       PRES   REMARKS
BEMIDJI        RAIN      50  50  97 NW7       30.06R
HALLOCK        CLOUDY    52  50  93 NW8       30.11R
ROSEAU         CLOUDY    54  48  82 NW6       30.08R
WARROAD        MOCLDY    50  46  87 NW6       30.08R
THIEF RVR FALL CLOUDY    52  48  87 NW14      30.09R
CROOKSTON      CLOUDY    48  48 100 NW6       30.12R
FOSSTON        CLOUDY    50  48  93 NW7       30.09R
DETROIT LAKES  CLOUDY    50  50 100 NW12G20   30.10R
MOORHEAD       CLEAR     50  50 100 NW6       30.13R
PARK RAPIDS    CLOUDY    51  49  92 NW6       30.06R
MAHNOMEN       CLOUDY    50  49  96 NW7       30.09R
$$
MNZ006-009>011-018-025>026-211300-
   North Central Minnesota

CITY           SKY/WX    TMP DP  RH WIND       PRES   REMARKS
BAUDETTE       PTCLDY    50  48  93 CALM      30.05R
FLAG ISLAND    CLEAR     52  50  93 N8        30.05R
INTL FALLS     MOCLDY    48  47  96 NW6       30.03R
6HR MIN TEMP:  48; 6HR MAX TEMP:  50; 6HR PCP:  0.01;

WASKISH        CLOUDY    48  48 100 NW3       30.06R FOG
BIG FORK       CLOUDY    48  46  93 NW5       30.04R
LONGVILLE      CLOUDY    50  48  93 NW3       30.04R
GRAND RAPIDS   CLOUDY    48  45  87 NW8       30.03R
CRANE LAKE     PTCLDY    46  45  93 N6        30.03R
ORR            CLOUDY    48  46  93 NW6       29.99R
COOK           MOCLDY    48  46  93 NW5       30.01R
WALKER         CLOUDY    49  48  95 CALM      30.05R
$$
MNZ012-019>021-037-211300-
   Northeast Minnesota

CITY           SKY/WX    TMP DP  RH WIND       PRES   REMARKS
DULUTH         CLOUDY    52  48  86 NW7       29.97R
6HR MIN TEMP:  52; 6HR MAX TEMP:  53; 6HR PCP:  0.03;

ELY            MOCLDY    45  43  93 CALM      29.98R
HIBBING        CLOUDY    50  47  89 NW12      30.01R
EVELETH        CLOUDY    52  48  87 NW10G16   30.00R
DULUTH HARBOR  CLOUDY    54  52  94 N8        29.98R
TWO HARBORS    PTCLDY    48  45  87 NW3       29.95R
SILVER BAY     PTCLDY    45  45 100 CALM      29.94R
GRAND MARAIS     N/A     50  42  74 VRB3      29.94R
G MARAIS ARPRT CLOUDY    43  37  81 N6        29.93R
$$
MNZ029>031-032-039>041-046>048-054>057-064-211300-
   West Central Minnesota

CITY           SKY/WX    TMP DP  RH WIND       PRES   REMARKS
FERGUS FALLS   CLOUDY    52  48  87 NW12      30.12R
WHEATON        CLEAR     48  45  87 NW8       30.14R
MORRIS         CLEAR     48  46  93 NW9       30.10R
ALEXANDRIA     CLOUDY    52  50  93 NW8       30.10R
ELBOW LAKE     CLOUDY    50  49  93 NW9       30.11R
WADENA         CLOUDY    50  48  93 W5        30.06R
GLENWOOD       PTCLDY    50  48  93 NW6       30.10R
APPLETON       CLEAR     52  46  82 NW9       30.11R
BENSON         CLEAR     48  46  93 N6        30.10R
ORTONVILLE     CLEAR     52  46  82 NW8       30.12R
MADISON        CLEAR     52  46  82 NW7       30.12R
WILLMAR        FAIR      50  46  87 NW6       30.10R
$$
MNZ033>034-036-042>043-049>051-058-059-211300-
   Central Minnesota

CITY           SKY/WX    TMP DP  RH WIND       PRES   REMARKS
ST CLOUD       CLEAR     50  46  86 NW8       30.04R
6HR MIN TEMP:  50; 6HR MAX TEMP:  56;

SAUK CENTRE    FAIR      50  47  92 NW8       30.08R
PAYNESVILLE    CLEAR     47  47  97 W7        30.08R
AITKIN         MOCLDY    50  45  81 CALM      30.03R
PINE RIVER     MOCLDY    48  46  93 NW3       30.08R
BRAINERD       CLEAR     48  46  93 N6        30.05R
STAPLES        CLOUDY    48  46  93 CALM      30.06R
LONG PRAIRIE   FAIR      46  46 100 W8        30.07R
LITTLE FALLS   PTCLDY    46  45  93 NW3       30.05R
LITCHFIELD     CLEAR     52  52 100 NW10G18   30.07R
BUFFALO        PTCLDY    51  46  82 NW10      30.04R
MAPLE LAKE     CLEAR     51  48  90 NW10      30.05R
$$
MNZ037-044-045-052-053-211300-
   East Central Minnesota

CITY           SKY/WX    TMP DP  RH WIND       PRES   REMARKS
PRINCETON      MOCLDY    52  46  82 NW8       30.02R
MORA           CLOUDY    50  46  87 NW13      30.03R
CAMBRIDGE      CLOUDY    54  46  76 NW10      30.00R
RUSH CITY      MOCLDY    50  48  92 NW9       30.00R
MOOSE LAKE     CLOUDY    50  46  87 CALM      29.99R
HINCKLEY       FAIR      50  50 100 NW9       30.00R
CLOQUET        MOCLDY    52  48  87 NW10      29.99R
$$
MNZ071>073-080-081-089-090-097-098-211300-
   Southwest Minnesota

CITY           SKY/WX    TMP DP  RH WIND       PRES   REMARKS
MONTEVIDEO     CLEAR     50  46  87 N8        30.11R
GRANITE FALLS  CLEAR     46  45  97 W6        30.11R
CANBY          CLEAR     52  47  83 NW10      30.13R
MARSHALL       CLEAR     48  43  81 NW10      30.10R
REDWOOD FALLS  CLEAR     51  48  89 NW9       30.08R
OLIVIA         CLEAR     50  46  87 NW6       30.07R
PIPESTONE      CLEAR     48  45  87 NW7       30.14R
WINDOM         CLEAR     52  46  82 NW13G20   30.09R
WORTHINGTON    CLEAR     50  45  81 NW12      30.12R
JACKSON        CLEAR     52  45  76 NW10      30.09R
TRACY          CLEAR     51  46  83 NW7       30.11R
SLAYTON        CLEAR     48  45  90 CALM      30.12R
$$
MNZ065>067-074>077-082>085-091>093-211300-
   South Central Minnesota

CITY           SKY/WX    TMP DP  RH WIND       PRES   REMARKS
MANKATO        CLEAR     52  45  76 NW10      30.03R
NEW ULM        CLEAR     50  50 100 NW9       30.06R
ST JAMES       CLEAR     52  48  87 NW9       30.08R
FAIRMONT       CLEAR     54  43  66 NW15      30.06R
GLENCOE        CLEAR     52  47  83 NW9G16    30.04R
FARIBAULT      CLEAR     54  46  76 NW7       30.00R
OWATONNA       CLEAR     52  46  82 NW10      30.01R
WASECA         CLEAR     50  45  81 NW9       30.03R
ALBERT LEA     CLEAR     52  48  87 NW10      30.01R
$$
MNZ078>079-086>088-094>096-211300-
   Southeast Minnesota

CITY           SKY/WX    TMP DP  RH WIND       PRES   REMARKS
ROCHESTER      CLOUDY    52  47  83 NW20G30   29.96R
6HR MIN TEMP:  51; 6HR MAX TEMP:  55;

RED WING       LGT RAIN  54  48  82 NW10G16   29.95R
STANTON        CLOUDY    54  47  77 NW15G23   29.98R
DODGE CENTER   CLOUDY    52  48  87 NW15G25   29.98R
WINONA         CLOUDY    55  50  82 NW15G24   29.91R
AUSTIN         PTCLDY    52  48  87 NW16G22   29.98R
PRESTON        MOCLDY    51  50  95 NW18G24   29.94R
$$
ABBREVIATIONS USED IN REMARKS
   TC - TEMPERATURES IN CELSIUS
  WCI - WIND CHILL INDEX
   HX - HEAT INDEX
  VSB - VISIBILITY
$$



USA.gov is the U.S. government's official web portal to all federal, state and local government web resources and services.